owner,sensor,date,latitude,longitude,vertical_datum,wind_speed,wind_to_direction,wind_speed_of_gust,qcFlag 
ADCP,ioos:station:wmo:42362:1,2008-03-10T19:30:00Z,27.7950,-90.6480,122.0,9.0,40.0,99.0,'11111222,11111222,11144222' 
ADCP,ioos:station:wmo:42362:1,2008-03-10T20:00:00Z,27.7950,-90.6480,122.0,11.0,30.0,99.0,'11111222,11111222,11144222' 
ADCP,ioos:station:wmo:42362:1,2008-03-10T21:00:00Z,27.7950,-90.6480,122.0,8.0,300.0,99.0,'11111222,11111222,11144222' 
ADCP,ioos:station:wmo:42362:1,2008-03-10T22:00:00Z,27.7950,-90.6480,122.0,6.0,30.0,99.0,'11111222,11111222,11144222' 
ADCP,ioos:station:wmo:42362:1,2008-03-10T23:00:00Z,27.7950,-90.6480,122.0,10.0,50.0,99.0,'11111222,11111222,11144222' 
ADCP,ioos:station:wmo:42362:1,2008-03-11T00:00:00Z,27.7950,-90.6480,122.0,12.0,40.0,99.0,'11111222,11111222,11144222' 
ADCP,ioos:station:wmo:42362:1,2008-03-11T01:00:00Z,27.7950,-90.6480,122.0,15.0,50.0,99.0,'11111222,11111222,11144222' 
ADCP,ioos:station:wmo:42362:1,2008-03-11T02:00:00Z,27.7950,-90.6480,122.0,14.0,60.0,99.0,'11111222,11111222,11144222' 
ADCP,ioos:station:wmo:42362:1,2008-03-11T03:00:00Z,27.7950,-90.6480,122.0,11.0,60.0,99.0,'11111222,11111222,11144222' 
ADCP,ioos:station:wmo:42362:1,2008-03-11T04:00:00Z,27.7950,-90.6480,122.0,12.0,80.0,99.0,'11111222,11111222,11144222' 
ADCP,ioos:station:wmo:42362:1,2008-03-11T05:00:00Z,27.7950,-90.6480,122.0,9.0,100.0,99.0,'11111222,11111222,11144222' 
ADCP,ioos:station:wmo:42362:1,2008-03-11T06:00:00Z,27.7950,-90.6480,122.0,9.0,130.0,99.0,'11111222,11111222,11144222' 
ADCP,ioos:station:wmo:42362:1,2008-03-11T07:00:00Z,27.7950,-90.6480,122.0,11.0,150.0,99.0,'11111222,11111222,11144222' 
ADCP,ioos:station:wmo:42362:1,2008-03-11T08:00:00Z,27.7950,-90.6480,122.0,5.0,170.0,99.0,'11111222,11111222,11144222' 
ADCP,ioos:station:wmo:42362:1,2008-03-11T09:00:00Z,27.7950,-90.6480,122.0,7.0,170.0,99.0,'11111222,11111222,11144222' 
ADCP,ioos:station:wmo:42362:1,2008-03-11T10:00:00Z,27.7950,-90.6480,122.0,11.0,180.0,99.0,'11111222,11111222,11144222' 
ADCP,ioos:station:wmo:42362:1,2008-03-11T11:00:00Z,27.7950,-90.6480,122.0,12.0,200.0,99.0,'11111222,11111222,11144222' 
ADCP,ioos:station:wmo:42362:1,2008-03-11T12:00:00Z,27.7950,-90.6480,122.0,13.0,200.0,99.0,'11111222,11111222,11144222' 
ADCP,ioos:station:wmo:42362:1,2008-03-11T13:00:00Z,27.7950,-90.6480,122.0,12.0,190.0,99.0,'11111222,11111222,11144222' 
ADCP,ioos:station:wmo:42362:1,2008-03-11T14:00:00Z,27.7950,-90.6480,122.0,13.0,190.0,99.0,'11111222,11111222,11144222' 
ADCP,ioos:station:wmo:42362:1,2008-03-11T15:00:00Z,27.7950,-90.6480,122.0,13.0,290.0,99.0,'11111222,11111222,11144222' 
ADCP,ioos:station:wmo:42362:1,2008-03-11T16:00:00Z,27.7950,-90.6480,122.0,9.0,290.0,99.0,'11111222,11111222,11144222' 
ADCP,ioos:station:wmo:42362:1,2008-03-11T17:00:00Z,27.7950,-90.6480,122.0,12.0,290.0,99.0,'11111222,11111222,11144222' 
ADCP,ioos:station:wmo:42362:1,2008-03-11T18:00:00Z,27.7950,-90.6480,122.0,12.0,300.0,99.0,'11111222,11111222,11144222' 
ADCP,ioos:station:wmo:42362:1,2008-03-19T17:15:00Z,27.7950,-90.6480,122.0,14.0,260.0,99.0,'11111222,11111222,11144222' 
ADCP,ioos:station:wmo:42362:1,2008-03-19T18:15:00Z,27.7950,-90.6480,122.0,14.0,250.0,99.0,'11111222,11111222,11144222' 
ADCP,ioos:station:wmo:42362:1,2008-03-19T19:00:00Z,27.7950,-90.6480,122.0,13.0,250.0,99.0,'11111222,11111222,11144222' 
ADCP,ioos:station:wmo:42362:1,2008-03-19T20:30:00Z,27.7950,-90.6480,122.0,19.0,260.0,99.0,'11111222,11111222,11144222' 
ADCP,ioos:station:wmo:42362:1,2008-03-19T21:00:00Z,27.7950,-90.6480,122.0,17.0,260.0,99.0,'11111222,11111222,11144222' 
ADCP,ioos:station:wmo:42362:1,2008-03-19T22:00:00Z,27.7950,-90.6480,122.0,15.0,270.0,99.0,'11111222,11111222,11144222' 
ADCP,ioos:station:wmo:42362:1,2008-03-19T23:00:00Z,27.7950,-90.6480,122.0,18.0,220.0,99.0,'11111222,11111222,11144222' 
ADCP,ioos:station:wmo:42362:1,2008-03-20T00:30:00Z,27.7950,-90.6480,122.0,17.0,280.0,99.0,'11111222,11111222,11144222' 
ADCP,ioos:station:wmo:42362:1,2008-03-20T01:00:00Z,27.7950,-90.6480,122.0,17.0,280.0,99.0,'11111222,11111222,11144222' 
ADCP,ioos:station:wmo:42362:1,2008-03-20T02:15:00Z,27.7950,-90.6480,122.0,17.0,300.0,99.0,'11111222,11111222,11144222' 
ADCP,ioos:station:wmo:42362:1,2008-03-20T03:30:00Z,27.7950,-90.6480,122.0,18.0,310.0,99.0,'11111222,11111222,11144222' 
ADCP,ioos:station:wmo:42362:1,2008-03-20T04:15:00Z,27.7950,-90.6480,122.0,15.0,320.0,99.0,'11111222,11111222,11144222' 
ADCP,ioos:station:wmo:42362:1,2008-03-20T05:30:00Z,27.7950,-90.6480,122.0,8.0,320.0,99.0,'11111222,11111222,11144222' 
ADCP,ioos:station:wmo:42362:1,2008-03-20T07:00:00Z,27.7950,-90.6480,122.0,13.0,330.0,99.0,'11111222,11111222,11144222' 
ADCP,ioos:station:wmo:42362:1,2008-03-20T08:00:00Z,27.7950,-90.6480,122.0,15.0,330.0,99.0,'11111222,11111222,11144222' 
ADCP,ioos:station:wmo:42362:1,2008-03-20T10:00:00Z,27.7950,-90.6480,122.0,16.0,360.0,99.0,'11111222,11144222,11144222' 
ADCP,ioos:station:wmo:42362:1,2008-03-20T11:15:00Z,27.7950,-90.6480,122.0,13.0,340.0,99.0,'11111222,11111222,11144222' 
ADCP,ioos:station:wmo:42362:1,2008-03-20T12:15:00Z,27.7950,-90.6480,122.0,11.0,350.0,99.0,'11111222,11111222,11144222' 
ADCP,ioos:station:wmo:42362:1,2008-03-20T13:30:00Z,27.7950,-90.6480,122.0,14.0,360.0,99.0,'11111222,11144222,11144222' 
ADCP,ioos:station:wmo:42362:1,2008-03-20T14:00:00Z,27.7950,-90.6480,122.0,14.0,10.0,99.0,'11111222,11111222,11144222' 
ADCP,ioos:station:wmo:42362:1,2008-03-20T16:00:00Z,27.7950,-90.6480,122.0,12.0,30.0,99.0,'11111222,11111222,11144222' 
ADCP,ioos:station:wmo:42362:1,2008-03-20T17:00:00Z,27.7950,-90.6480,122.0,12.0,20.0,99.0,'11111222,11111222,11144222' 
ADCP,ioos:station:wmo:42362:1,2008-03-20T18:00:00Z,27.7950,-90.6480,122.0,12.0,30.0,99.0,'11111222,11111222,11144222' 
ADCP,ioos:station:wmo:42362:1,2008-03-20T20:30:00Z,27.7950,-90.6480,122.0,10.0,30.0,99.0,'11111222,11111222,11144222' 
ADCP,ioos:station:wmo:42362:1,2008-03-20T21:30:00Z,27.7950,-90.6480,122.0,8.0,20.0,99.0,'11111222,11111222,11144222' 
ADCP,ioos:station:wmo:42362:1,2008-03-20T22:00:00Z,27.7950,-90.6480,122.0,9.0,20.0,99.0,'11111222,11111222,11144222' 
ADCP,ioos:station:wmo:42362:1,2008-03-20T23:30:00Z,27.7950,-90.6480,122.0,10.0,20.0,99.0,'11111222,11111222,11144222' 
ADCP,ioos:station:wmo:42362:1,2008-03-21T01:15:00Z,27.7950,-90.6480,122.0,9.0,30.0,99.0,'11111222,11111222,11144222' 
ADCP,ioos:station:wmo:42362:1,2008-03-21T03:15:00Z,27.7950,-90.6480,122.0,11.0,40.0,99.0,'11111222,11111222,11144222' 
ADCP,ioos:station:wmo:42362:1,2008-03-21T04:00:00Z,27.7950,-90.6480,122.0,11.0,50.0,99.0,'11111222,11111222,11144222' 
ADCP,ioos:station:wmo:42362:1,2008-03-21T05:15:00Z,27.7950,-90.6480,122.0,10.0,60.0,99.0,'11111222,11111222,11144222' 
ADCP,ioos:station:wmo:42362:1,2008-03-21T06:00:00Z,27.7950,-90.6480,122.0,8.0,50.0,99.0,'11111222,11111222,11144222' 
ADCP,ioos:station:wmo:42362:1,2008-03-21T07:00:00Z,27.7950,-90.6480,122.0,11.0,60.0,99.0,'11111222,11111222,11144222' 
ADCP,ioos:station:wmo:42362:1,2008-03-21T08:15:00Z,27.7950,-90.6480,122.0,9.0,70.0,99.0,'11111222,11111222,11144222' 
ADCP,ioos:station:wmo:42362:1,2008-03-21T10:15:00Z,27.7950,-90.6480,122.0,8.0,70.0,99.0,'11111222,11111222,11144222' 
ADCP,ioos:station:wmo:42362:1,2008-03-21T11:00:00Z,27.7950,-90.6480,122.0,9.0,90.0,99.0,'11111222,11111222,11144222' 
ADCP,ioos:station:wmo:42362:1,2008-03-21T12:15:00Z,27.7950,-90.6480,122.0,11.0,70.0,99.0,'11111222,11111222,11144222' 
ADCP,ioos:station:wmo:42362:1,2008-03-21T14:00:00Z,27.7950,-90.6480,122.0,12.0,80.0,99.0,'11111222,11111222,11144222' 
ADCP,ioos:station:wmo:42362:1,2008-03-21T15:15:00Z,27.7950,-90.6480,122.0,8.0,80.0,99.0,'11111222,11111222,11144222' 
ADCP,ioos:station:wmo:42362:1,2008-03-21T16:15:00Z,27.7950,-90.6480,122.0,7.0,100.0,99.0,'11111222,11111222,11144222' 
ADCP,ioos:station:wmo:42362:1,2008-03-21T17:00:00Z,27.7950,-90.6480,122.0,8.0,100.0,99.0,'11111222,11111222,11144222' 
ADCP,ioos:station:wmo:42362:1,2008-03-21T18:30:00Z,27.7950,-90.6480,122.0,2.0,40.0,99.0,'11111222,11111222,11144222' 
ADCP,ioos:station:wmo:42362:1,2008-03-21T19:30:00Z,27.7950,-90.6480,122.0,4.0,70.0,99.0,'11111222,11111222,11144222' 
ADCP,ioos:station:wmo:42362:1,2008-03-21T20:00:00Z,27.7950,-90.6480,122.0,5.0,50.0,99.0,'11111222,11111222,11144222' 
ADCP,ioos:station:wmo:42362:1,2008-03-21T21:00:00Z,27.7950,-90.6480,122.0,4.0,60.0,99.0,'11111222,11111222,11144222' 
ADCP,ioos:station:wmo:42362:1,2008-03-21T23:30:00Z,27.7950,-90.6480,122.0,0.0,0.0,99.0,'11111222,11111222,11144222' 
ADCP,ioos:station:wmo:42362:1,2008-03-22T00:15:00Z,27.7950,-90.6480,122.0,0.0,0.0,99.0,'11111222,11111222,11144222' 
ADCP,ioos:station:wmo:42362:1,2008-03-22T01:00:00Z,27.7950,-90.6480,122.0,0.0,0.0,99.0,'11111222,11111222,11144222' 
ADCP,ioos:station:wmo:42362:1,2008-03-22T04:00:00Z,27.7950,-90.6480,122.0,2.0,200.0,99.0,'11111222,11111222,11144222' 
ADCP,ioos:station:wmo:42362:1,2008-03-22T06:00:00Z,27.7950,-90.6480,122.0,2.0,250.0,99.0,'11111222,11111222,11144222' 
ADCP,ioos:station:wmo:42362:1,2008-03-22T07:30:00Z,27.7950,-90.6480,122.0,3.0,300.0,99.0,'11111222,11111222,11144222' 
ADCP,ioos:station:wmo:42362:1,2008-03-22T09:00:00Z,27.7950,-90.6480,122.0,3.0,310.0,99.0,'11111222,11111222,11144222' 
ADCP,ioos:station:wmo:42362:1,2008-03-22T10:00:00Z,27.7950,-90.6480,122.0,4.0,340.0,99.0,'11111222,11111222,11144222' 
ADCP,ioos:station:wmo:42362:1,2008-03-22T11:00:00Z,27.7950,-90.6480,122.0,6.0,340.0,99.0,'11111222,11111222,11144222' 
ADCP,ioos:station:wmo:42362:1,2008-03-22T14:00:00Z,27.7950,-90.6480,122.0,8.0,340.0,99.0,'11111222,11111222,11144222' 
ADCP,ioos:station:wmo:42362:1,2008-03-22T17:30:00Z,27.7950,-90.6480,122.0,8.0,360.0,99.0,'11111222,11144222,11144222' 
ADCP,ioos:station:wmo:42362:1,2008-03-22T19:15:00Z,27.7950,-90.6480,122.0,6.0,20.0,99.0,'11111222,11111222,11144222' 
ADCP,ioos:station:wmo:42362:1,2008-03-22T20:15:00Z,27.7950,-90.6480,122.0,7.0,30.0,99.0,'11111222,11111222,11144222' 
ADCP,ioos:station:wmo:42362:1,2008-03-22T21:00:00Z,27.7950,-90.6480,122.0,5.0,30.0,99.0,'11111222,11111222,11144222' 
ADCP,ioos:station:wmo:42362:1,2008-03-22T22:00:00Z,27.7950,-90.6480,122.0,8.0,40.0,99.0,'11111222,11111222,11144222' 
ADCP,ioos:station:wmo:42362:1,2008-03-22T23:30:00Z,27.7950,-90.6480,122.0,11.0,50.0,99.0,'11111222,11111222,11144222' 
ADCP,ioos:station:wmo:42362:1,2008-03-23T00:30:00Z,27.7950,-90.6480,122.0,9.0,40.0,99.0,'11111222,11111222,11144222' 
ADCP,ioos:station:wmo:42362:1,2008-03-23T01:15:00Z,27.7950,-90.6480,122.0,8.0,40.0,99.0,'11111222,11111222,11144222' 
ADCP,ioos:station:wmo:42362:1,2008-03-23T04:00:00Z,27.7950,-90.6480,122.0,5.0,50.0,99.0,'11111222,11111222,11144222' 
ADCP,ioos:station:wmo:42362:1,2008-03-23T05:30:00Z,27.7950,-90.6480,122.0,3.0,50.0,99.0,'11111222,11111222,11144222' 
ADCP,ioos:station:wmo:42362:1,2008-03-23T06:00:00Z,27.7950,-90.6480,122.0,5.0,50.0,99.0,'11111222,11111222,11144222' 
ADCP,ioos:station:wmo:42362:1,2008-03-23T07:15:00Z,27.7950,-90.6480,122.0,3.0,60.0,99.0,'11111222,11111222,11144222' 
ADCP,ioos:station:wmo:42362:1,2008-03-23T08:15:00Z,27.7950,-90.6480,122.0,4.0,50.0,99.0,'11111222,11111222,11144222' 
ADCP,ioos:station:wmo:42362:1,2008-03-23T09:30:00Z,27.7950,-90.6480,122.0,3.0,30.0,99.0,'11111222,11111222,11144222' 
ADCP,ioos:station:wmo:42362:1,2008-03-23T10:00:00Z,27.7950,-90.6480,122.0,5.0,20.0,99.0,'11111222,11111222,11144222' 
ADCP,ioos:station:wmo:42362:1,2008-03-23T11:00:00Z,27.7950,-90.6480,122.0,6.0,360.0,99.0,'11111222,11144222,11144222' 
ADCP,ioos:station:wmo:42362:1,2008-03-23T12:30:00Z,27.7950,-90.6480,122.0,10.0,330.0,99.0,'11111222,11111222,11144222' 
ADCP,ioos:station:wmo:42362:1,2008-03-23T14:15:00Z,27.7950,-90.6480,122.0,16.0,360.0,99.0,'11111222,11144222,11144222' 
ADCP,ioos:station:wmo:42362:1,2008-03-23T18:15:00Z,27.7950,-90.6480,122.0,16.0,30.0,99.0,'11111222,11111222,11144222' 
ADCP,ioos:station:wmo:42362:1,2008-03-23T19:30:00Z,27.7950,-90.6480,122.0,13.0,40.0,99.0,'11111222,11111222,11144222' 
ADCP,ioos:station:wmo:42362:1,2008-03-23T20:15:00Z,27.7950,-90.6480,122.0,12.0,30.0,99.0,'11111222,11111222,11144222' 
ADCP,ioos:station:wmo:42362:1,2008-03-23T21:30:00Z,27.7950,-90.6480,122.0,13.0,30.0,99.0,'11111222,11111222,11144222' 
ADCP,ioos:station:wmo:42362:1,2008-03-23T22:15:00Z,27.7950,-90.6480,122.0,15.0,20.0,99.0,'11111222,11111222,11144222' 
ADCP,ioos:station:wmo:42362:1,2008-03-23T23:00:00Z,27.7950,-90.6480,122.0,14.0,20.0,99.0,'11111222,11111222,11144222' 
ADCP,ioos:station:wmo:42362:1,2008-03-24T00:15:00Z,27.7950,-90.6480,122.0,15.0,20.0,99.0,'11111222,11111222,11144222' 
ADCP,ioos:station:wmo:42362:1,2008-03-24T02:15:00Z,27.7950,-90.6480,122.0,15.0,10.0,99.0,'11111222,11111222,11144222' 
ADCP,ioos:station:wmo:42362:1,2008-03-24T03:30:00Z,27.7950,-90.6480,122.0,18.0,360.0,99.0,'11111222,11144222,11144222' 
ADCP,ioos:station:wmo:42362:1,2008-03-24T04:30:00Z,27.7950,-90.6480,122.0,14.0,350.0,99.0,'11111222,11111222,11144222' 
ADCP,ioos:station:wmo:42362:1,2008-03-24T05:30:00Z,27.7950,-90.6480,122.0,15.0,10.0,99.0,'11111222,11111222,11144222' 
ADCP,ioos:station:wmo:42362:1,2008-03-24T06:30:00Z,27.7950,-90.6480,122.0,15.0,360.0,99.0,'11111222,11144222,11144222' 
ADCP,ioos:station:wmo:42362:1,2008-03-24T07:15:00Z,27.7950,-90.6480,122.0,14.0,10.0,99.0,'11111222,11111222,11144222' 
ADCP,ioos:station:wmo:42362:1,2008-03-24T09:15:00Z,27.7950,-90.6480,122.0,15.0,10.0,99.0,'11111222,11111222,11144222' 
ADCP,ioos:station:wmo:42362:1,2008-03-24T10:15:00Z,27.7950,-90.6480,122.0,16.0,340.0,99.0,'11111222,11111222,11144222' 
ADCP,ioos:station:wmo:42362:1,2008-03-24T11:00:00Z,27.7950,-90.6480,122.0,16.0,10.0,99.0,'11111222,11111222,11144222' 
ADCP,ioos:station:wmo:42362:1,2008-03-24T12:30:00Z,27.7950,-90.6480,122.0,15.0,360.0,99.0,'11111222,11144222,11144222' 
ADCP,ioos:station:wmo:42362:1,2008-03-24T13:15:00Z,27.7950,-90.6480,122.0,17.0,20.0,99.0,'11111222,11111222,11144222' 
ADCP,ioos:station:wmo:42362:1,2008-03-24T14:15:00Z,27.7950,-90.6480,122.0,14.0,20.0,99.0,'11111222,11111222,11144222' 
ADCP,ioos:station:wmo:42362:1,2008-03-24T15:30:00Z,27.7950,-90.6480,122.0,12.0,20.0,99.0,'11111222,11111222,11144222' 
ADCP,ioos:station:wmo:42362:1,2008-03-24T16:00:00Z,27.7950,-90.6480,122.0,13.0,10.0,99.0,'11111222,11111222,11144222' 
ADCP,ioos:station:wmo:42362:1,2008-03-24T18:00:00Z,27.7950,-90.6480,122.0,0.0,0.0,99.0,'11111222,11111222,11144222' 
ADCP,ioos:station:wmo:42362:1,2008-03-24T20:30:00Z,27.7950,-90.6480,122.0,0.0,0.0,99.0,'11111222,11111222,11144222' 
ADCP,ioos:station:wmo:42362:1,2008-03-24T21:15:00Z,27.7950,-90.6480,122.0,0.0,0.0,99.0,'11111222,11111222,11144222' 
ADCP,ioos:station:wmo:42362:1,2008-03-24T23:15:00Z,27.7950,-90.6480,122.0,0.0,0.0,99.0,'11111222,11111222,11144222' 
ADCP,ioos:station:wmo:42362:1,2008-03-25T00:00:00Z,27.7950,-90.6480,122.0,0.0,0.0,99.0,'11111222,11111222,11144222' 
ADCP,ioos:station:wmo:42362:1,2008-03-25T01:15:00Z,27.7950,-90.6480,122.0,0.0,0.0,99.0,'11111222,11111222,11144222' 
ADCP,ioos:station:wmo:42362:1,2008-03-25T02:30:00Z,27.7950,-90.6480,122.0,0.0,0.0,99.0,'11111222,11111222,11144222' 
ADCP,ioos:station:wmo:42362:1,2008-03-25T03:00:00Z,27.7950,-90.6480,122.0,0.0,0.0,99.0,'11111222,11111222,11144222' 
ADCP,ioos:station:wmo:42362:1,2008-03-25T05:30:00Z,27.7950,-90.6480,122.0,0.0,0.0,99.0,'11111222,11111222,11144222' 
ADCP,ioos:station:wmo:42362:1,2008-03-25T06:15:00Z,27.7950,-90.6480,122.0,0.0,0.0,99.0,'11111222,11111222,11144222' 
ADCP,ioos:station:wmo:42362:1,2008-03-25T07:15:00Z,27.7950,-90.6480,122.0,0.0,0.0,99.0,'11111222,11111222,11144222' 
ADCP,ioos:station:wmo:42362:1,2008-03-25T08:00:00Z,27.7950,-90.6480,122.0,0.0,0.0,99.0,'11111222,11111222,11144222' 
ADCP,ioos:station:wmo:42362:1,2008-03-25T09:00:00Z,27.7950,-90.6480,122.0,0.0,0.0,99.0,'11111222,11111222,11144222' 
ADCP,ioos:station:wmo:42362:1,2008-03-25T10:00:00Z,27.7950,-90.6480,122.0,0.0,0.0,99.0,'11111222,11111222,11144222' 
ADCP,ioos:station:wmo:42362:1,2008-03-25T11:30:00Z,27.7950,-90.6480,122.0,0.0,0.0,99.0,'11111222,11111222,11144222' 
ADCP,ioos:station:wmo:42362:1,2008-03-25T12:30:00Z,27.7950,-90.6480,122.0,0.0,0.0,99.0,'11111222,11111222,11144222' 
ADCP,ioos:station:wmo:42362:1,2008-03-25T13:30:00Z,27.7950,-90.6480,122.0,0.0,0.0,99.0,'11111222,11111222,11144222' 
ADCP,ioos:station:wmo:42362:1,2008-03-25T15:00:00Z,27.7950,-90.6480,122.0,0.0,0.0,99.0,'11111222,11111222,11144222' 
ADCP,ioos:station:wmo:42362:1,2008-03-25T16:15:00Z,27.7950,-90.6480,122.0,0.0,0.0,99.0,'11111222,11111222,11144222' 
ADCP,ioos:station:wmo:42362:1,2008-03-25T17:00:00Z,27.7950,-90.6480,122.0,0.0,0.0,99.0,'11111222,11111222,11144222' 
ADCP,ioos:station:wmo:42362:1,2008-03-25T18:15:00Z,27.7950,-90.6480,122.0,0.0,0.0,99.0,'11111222,11111222,11144222' 
ADCP,ioos:station:wmo:42362:1,2008-03-25T20:00:00Z,27.7950,-90.6480,122.0,0.0,0.0,99.0,'11111222,11111222,11144222' 
ADCP,ioos:station:wmo:42362:1,2008-03-25T21:15:00Z,27.7950,-90.6480,122.0,0.0,0.0,99.0,'11111222,11111222,11144222' 
ADCP,ioos:station:wmo:42362:1,2008-03-25T22:15:00Z,27.7950,-90.6480,122.0,0.0,0.0,99.0,'11111222,11111222,11144222' 
ADCP,ioos:station:wmo:42362:1,2008-03-25T23:30:00Z,27.7950,-90.6480,122.0,5.0,100.0,99.0,'11111222,11111222,11144222' 
ADCP,ioos:station:wmo:42362:1,2008-03-26T00:30:00Z,27.7950,-90.6480,122.0,9.0,110.0,99.0,'11111222,11111222,11144222' 
ADCP,ioos:station:wmo:42362:1,2008-03-26T01:30:00Z,27.7950,-90.6480,122.0,7.0,100.0,99.0,'11111222,11111222,11144222' 
ADCP,ioos:station:wmo:42362:1,2008-03-26T03:15:00Z,27.7950,-90.6480,122.0,9.0,110.0,99.0,'11111222,11111222,11144222' 
ADCP,ioos:station:wmo:42362:1,2008-03-26T04:15:00Z,27.7950,-90.6480,122.0,4.0,130.0,99.0,'11111222,11111222,11144222' 
ADCP,ioos:station:wmo:42362:1,2008-03-26T07:00:00Z,27.7950,-90.6480,122.0,6.0,160.0,99.0,'11111222,11111222,11144222' 
ADCP,ioos:station:wmo:42362:1,2008-03-26T09:15:00Z,27.7950,-90.6480,122.0,9.0,120.0,99.0,'11111222,11111222,11144222' 
ADCP,ioos:station:wmo:42362:1,2008-03-26T10:00:00Z,27.7950,-90.6480,122.0,9.0,130.0,99.0,'11111222,11111222,11144222' 
ADCP,ioos:station:wmo:42362:1,2008-03-26T11:00:00Z,27.7950,-90.6480,122.0,5.0,140.0,99.0,'11111222,11111222,11144222' 
ADCP,ioos:station:wmo:42362:1,2008-03-26T12:15:00Z,27.7950,-90.6480,122.0,7.0,110.0,99.0,'11111222,11111222,11144222' 
ADCP,ioos:station:wmo:42362:1,2008-03-26T14:15:00Z,27.7950,-90.6480,122.0,6.0,100.0,99.0,'11111222,11111222,11144222' 
ADCP,ioos:station:wmo:42362:1,2008-03-26T15:15:00Z,27.7950,-90.6480,122.0,6.0,100.0,99.0,'11111222,11111222,11144222' 
ADCP,ioos:station:wmo:42362:1,2008-03-26T17:00:00Z,27.7950,-90.6480,122.0,6.0,100.0,99.0,'11111222,11111222,11144222' 
ADCP,ioos:station:wmo:42362:1,2008-03-26T18:00:00Z,27.7950,-90.6480,122.0,8.0,110.0,99.0,'11111222,11111222,11144222' 
ADCP,ioos:station:wmo:42362:1,2008-03-26T19:00:00Z,27.7950,-90.6480,122.0,7.0,120.0,99.0,'11111222,11111222,11144222' 
ADCP,ioos:station:wmo:42362:1,2008-03-26T20:00:00Z,27.7950,-90.6480,122.0,9.0,120.0,99.0,'11111222,11111222,11144222' 
ADCP,ioos:station:wmo:42362:1,2008-03-26T21:00:00Z,27.7950,-90.6480,122.0,7.0,110.0,99.0,'11111222,11111222,11144222' 
ADCP,ioos:station:wmo:42362:1,2008-03-26T22:00:00Z,27.7950,-90.6480,122.0,7.0,110.0,99.0,'11111222,11111222,11144222' 
ADCP,ioos:station:wmo:42362:1,2008-03-26T23:00:00Z,27.7950,-90.6480,122.0,8.0,110.0,99.0,'11111222,11111222,11144222' 
ADCP,ioos:station:wmo:42362:1,2008-03-27T00:00:00Z,27.7950,-90.6480,122.0,8.0,130.0,99.0,'11111222,11111222,11144222' 
ADCP,ioos:station:wmo:42362:1,2008-03-27T01:00:00Z,27.7950,-90.6480,122.0,8.0,120.0,99.0,'11111222,11111222,11144222' 
ADCP,ioos:station:wmo:42362:1,2008-03-27T02:00:00Z,27.7950,-90.6480,122.0,9.0,120.0,99.0,'11111222,11111222,11144222' 
ADCP,ioos:station:wmo:42362:1,2008-03-27T03:00:00Z,27.7950,-90.6480,122.0,6.0,130.0,99.0,'11111222,11111222,11144222' 
ADCP,ioos:station:wmo:42362:1,2008-03-27T04:00:00Z,27.7950,-90.6480,122.0,10.0,110.0,99.0,'11111222,11111222,11144222' 
ADCP,ioos:station:wmo:42362:1,2008-03-27T05:00:00Z,27.7950,-90.6480,122.0,8.0,150.0,99.0,'11111222,11111222,11144222' 
ADCP,ioos:station:wmo:42362:1,2008-03-27T06:00:00Z,27.7950,-90.6480,122.0,9.0,150.0,99.0,'11111222,11111222,11144222' 
ADCP,ioos:station:wmo:42362:1,2008-03-27T07:00:00Z,27.7950,-90.6480,122.0,11.0,140.0,99.0,'11111222,11111222,11144222' 
ADCP,ioos:station:wmo:42362:1,2008-03-27T08:00:00Z,27.7950,-90.6480,122.0,10.0,140.0,99.0,'11111222,11111222,11144222' 
ADCP,ioos:station:wmo:42362:1,2008-03-27T09:00:00Z,27.7950,-90.6480,122.0,6.0,150.0,99.0,'11111222,11111222,11144222' 
ADCP,ioos:station:wmo:42362:1,2008-03-27T10:00:00Z,27.7950,-90.6480,122.0,12.0,130.0,99.0,'11111222,11111222,11144222' 
ADCP,ioos:station:wmo:42362:1,2008-03-27T11:00:00Z,27.7950,-90.6480,122.0,8.0,150.0,99.0,'11111222,11111222,11144222' 
ADCP,ioos:station:wmo:42362:1,2008-03-27T12:00:00Z,27.7950,-90.6480,122.0,6.0,140.0,99.0,'11111222,11111222,11144222' 
ADCP,ioos:station:wmo:42362:1,2008-03-27T13:00:00Z,27.7950,-90.6480,122.0,6.0,130.0,99.0,'11111222,11111222,11144222' 
ADCP,ioos:station:wmo:42362:1,2008-03-27T14:00:00Z,27.7950,-90.6480,122.0,7.0,160.0,99.0,'11111222,11111222,11144222' 
ADCP,ioos:station:wmo:42362:1,2008-03-27T15:00:00Z,27.7950,-90.6480,122.0,9.0,150.0,99.0,'11111222,11111222,11144222' 
ADCP,ioos:station:wmo:42362:1,2008-03-27T16:00:00Z,27.7950,-90.6480,122.0,8.0,160.0,99.0,'11111222,11111222,11144222' 
ADCP,ioos:station:wmo:42362:1,2008-03-27T17:00:00Z,27.7950,-90.6480,122.0,10.0,140.0,99.0,'11111222,11111222,11144222' 
ADCP,ioos:station:wmo:42362:1,2008-03-27T18:00:00Z,27.7950,-90.6480,122.0,9.0,130.0,99.0,'11111222,11111222,11144222' 
ADCP,ioos:station:wmo:42362:1,2008-03-27T19:00:00Z,27.7950,-90.6480,122.0,8.0,180.0,99.0,'11111222,11111222,11144222' 
ADCP,ioos:station:wmo:42362:1,2008-03-27T20:00:00Z,27.7950,-90.6480,122.0,8.0,180.0,99.0,'11111222,11111222,11144222' 
ADCP,ioos:station:wmo:42362:1,2008-03-27T21:00:00Z,27.7950,-90.6480,122.0,9.0,160.0,99.0,'11111222,11111222,11144222' 
ADCP,ioos:station:wmo:42362:1,2008-03-27T22:00:00Z,27.7950,-90.6480,122.0,9.0,140.0,99.0,'11111222,11111222,11144222' 
ADCP,ioos:station:wmo:42362:1,2008-03-27T23:00:00Z,27.7950,-90.6480,122.0,10.0,160.0,99.0,'11111222,11111222,11144222' 
ADCP,ioos:station:wmo:42362:1,2008-03-28T00:00:00Z,27.7950,-90.6480,122.0,12.0,130.0,99.0,'11111222,11111222,11144222' 
ADCP,ioos:station:wmo:42362:1,2008-03-28T01:00:00Z,27.7950,-90.6480,122.0,12.0,130.0,99.0,'11111222,11111222,11144222' 
ADCP,ioos:station:wmo:42362:1,2008-03-28T02:00:00Z,27.7950,-90.6480,122.0,12.0,140.0,99.0,'11111222,11111222,11144222' 
ADCP,ioos:station:wmo:42362:1,2008-03-28T03:00:00Z,27.7950,-90.6480,122.0,12.0,130.0,99.0,'11111222,11111222,11144222' 
ADCP,ioos:station:wmo:42362:1,2008-03-28T04:00:00Z,27.7950,-90.6480,122.0,15.0,150.0,99.0,'11111222,11111222,11144222' 
ADCP,ioos:station:wmo:42362:1,2008-03-28T05:00:00Z,27.7950,-90.6480,122.0,11.0,150.0,99.0,'11111222,11111222,11144222' 
ADCP,ioos:station:wmo:42362:1,2008-03-28T06:00:00Z,27.7950,-90.6480,122.0,12.0,120.0,99.0,'11111222,11111222,11144222' 
ADCP,ioos:station:wmo:42362:1,2008-03-28T07:00:00Z,27.7950,-90.6480,122.0,13.0,130.0,99.0,'11111222,11111222,11144222' 
ADCP,ioos:station:wmo:42362:1,2008-03-28T08:00:00Z,27.7950,-90.6480,122.0,13.0,140.0,99.0,'11111222,11111222,11144222' 
ADCP,ioos:station:wmo:42362:1,2008-03-28T09:00:00Z,27.7950,-90.6480,122.0,12.0,150.0,99.0,'11111222,11111222,11144222' 
ADCP,ioos:station:wmo:42362:1,2008-03-28T10:00:00Z,27.7950,-90.6480,122.0,6.0,160.0,99.0,'11111222,11111222,11144222' 
ADCP,ioos:station:wmo:42362:1,2008-03-28T11:00:00Z,27.7950,-90.6480,122.0,5.0,160.0,99.0,'11111222,11111222,11144222' 
ADCP,ioos:station:wmo:42362:1,2008-03-28T12:00:00Z,27.7950,-90.6480,122.0,7.0,160.0,99.0,'11111222,11111222,11144222' 
ADCP,ioos:station:wmo:42362:1,2008-03-28T13:00:00Z,27.7950,-90.6480,122.0,6.0,160.0,99.0,'11111222,11111222,11144222' 
ADCP,ioos:station:wmo:42362:1,2008-03-28T14:00:00Z,27.7950,-90.6480,122.0,9.0,150.0,99.0,'11111222,11111222,11144222' 
ADCP,ioos:station:wmo:42362:1,2008-03-28T15:00:00Z,27.7950,-90.6480,122.0,8.0,150.0,99.0,'11111222,11111222,11144222' 